This is the latest recevied weather packets stored in our database for station/object W4SKW. If no packets are shown the sender has not sent any weather packets the latest 10 day(s).
| Time | Temp. | Humidity | Pressure | Rain* | Wind** | Luminosity | Snow |
|---|---|---|---|---|---|---|---|
| 1777936503 | 22.78° C | 63% | 1014.6 hPa | 0 mm | - | 50 W/m² | - |
| 1777936199 | 22.78° C | 63% | 1014.6 hPa | 0 mm | - | 50 W/m² | - |
| 1777935896 | 22.78° C | 60% | 1014.7 hPa | 0 mm | - | 58 W/m² | - |
| 1777935595 | 23.89° C | 59% | 1014.5 hPa | 0 mm | - | 59 W/m² | - |
| 1777935291 | 23.33° C | 56% | 1014.7 hPa | 0 mm | - | 130 W/m² | - |
| 1777934988 | 23.33° C | 59% | 1014.8 hPa | 0 mm | - | 159 W/m² | - |
| 1777934685 | 23.89° C | 48% | 1014.6 hPa | 0 mm | - | 134 W/m² | - |
| 1777934382 | 23.89° C | 56% | 1014.8 hPa | 0 mm | - | 203 W/m² | - |
| 1777934078 | 23.33° C | 55% | 1015 hPa | 0 mm | - | 188 W/m² | - |
| 1777933773 | 22.78° C | 63% | 1014.9 hPa | 0 mm | - | 168 W/m² | - |
| 1777933472 | 22.78° C | 57% | 1015 hPa | 0 mm | - | 189 W/m² | - |
| 1777933169 | 23.33° C | 59% | 1014.8 hPa | 0 mm | - | 169 W/m² | - |
| 1777932866 | 23.89° C | 48% | 1015 hPa | 0 mm | - | 168 W/m² | - |
| 1777932563 | 23.33° C | 52% | 1014.9 hPa | 0 mm | - | 195 W/m² | - |
| 1777932259 | 23.33° C | 60% | 1014.8 hPa | 0 mm | - | 205 W/m² | - |
| 1777931957 | 23.89° C | 54% | 1015 hPa | 0 mm | - | 260 W/m² | - |
| 1777931653 | 24.44° C | 47% | 1015 hPa | 0 mm | - | 230 W/m² | - |
| 1777931350 | 24.44° C | 48% | 1015 hPa | 0 mm | - | 194 W/m² | - |
| 1777931046 | 24.44° C | 55% | 1015 hPa | 0 mm | - | 202 W/m² | - |
| 1777930743 | 25.56° C | 53% | 1014.9 hPa | 0 mm | - | 216 W/m² | - |
| 1777930439 | 25.56° C | 53% | 1014.9 hPa | 0 mm | - | 216 W/m² | - |
| 1777930137 | 25.56° C | 47% | 1015 hPa | 0 mm | - | 342 W/m² | - |
| 1777929832 | 25.56° C | 42% | 1015 hPa | 0 mm | - | 426 W/m² | - |
| 1777929530 | 25° C | 48% | 1015.1 hPa | 0 mm | - | 429 W/m² | - |
| 1777929226 | 25° C | 45% | 1015 hPa | 0 mm | - | 315 W/m² | - |
* Rain latest hour (hover to see other rain measurements)
** Current wind speed in m/s (hover to see current wind gust speed)